Regional Weather Roundup
Issued by NWS

Home | Current Version | Previous Version | Graphics & Text | Print | Product List | Glossary On
Versions: 1 2 3 4 5 6 7 8 9 10 11 12 13 14 15 16 17 18 19 20 21 22 23 24 25 26 27 28 29 30 31 32 33 34 35 36 37 38 39 40 41 42 43 44 45 46 47 48 49 50
000
ASUS43 KLMK 181310
RWRKY
KENTUCKY REGIONAL WEATHER ROUNDUP
NATIONAL WEATHER SERVICE LOUISVILLE KY
900 AM EDT SAT APR 18 2015

NOTE "FAIR" INDICATES FEW OR NO CLOUDS BELOW 12,000 FEET
WITH NO SIGNIFICANT WEATHER AND/OR OBSTRUCTIONS TO VISIBILITY.

KYZ001>023-026-027-061>063-070>075-181400-
WESTERN AND SOUTH CENTRAL KENTUCKY

CITY           SKY/WX    TMP DP  RH WIND       PRES   REMARKS
PADUCAH        MOSUNNY   63  60  90 NE3       30.00F FOG
HENDERSON      CLOUDY    57  55  94 CALM      30.01F
OWENSBORO      FOG       59  59 100 CALM      30.04S VSB 1
HOPKINSVILLE   MOSUNNY   59  58  98 E2        30.00F
BOWLING GREEN  CLOUDY    57  55  93 CALM      30.04S
GLASGOW        CLOUDY    57  57 100 CALM      30.04S FOG
$$

KYZ024-025-028>034-038-045-046-053-181400-
NORTH CENTRAL KENTUCKY

CITY           SKY/WX    TMP DP  RH WIND       PRES   REMARKS
LOUISVILLE/SDF PTSUNNY   62  56  80 CALM      30.04F HAZE
LOUISVILLE/LOU MOSUNNY   61  56  83 CALM      30.05S
FORT KNOX      CLOUDY    61  58  88 E2        30.03S
$$

KYZ035>037-039>044-047>052-055>060-089>105-181400-
NORTHEAST KENTUCKY

CITY           SKY/WX    TMP DP  RH WIND       PRES   REMARKS
LEXINGTON      SUNNY     62  56  80 CALM      30.06R
COVINGTON      MOSUNNY   62  48  60 NE5       30.07R
FRANKFORT      SUNNY     59  54  83 CALM      30.04S
$$

KYZ054-064>069-076>088-106>120-181400-
SOUTHEAST KENTUCKY

CITY           SKY/WX    TMP DP  RH WIND       PRES   REMARKS
JACKSON        SUNNY     63  53  70 CALM      30.07R
LONDON         MOSUNNY   62  55  77 CALM      30.06R
SOMERSET       MOSUNNY   54  54 100 CALM      30.06F
MIDDLESBORO    FOG       55  55 100 CALM      30.07S VSB 1/2
MONTICELLO     CLOUDY    57  57 100 CALM      30.08S
$$



USA.gov is the U.S. government's official web portal to all federal, state and local government web resources and services.